Temperature
24 24 23 22 21 21 23 23 22 23 23 24 24 24 23 21 21 21 21 22 21 21 20 20 20 20 20 20 20 20 20 20 20 19 19 19 19 19 19 19 19 19 19 19 19 19 19 19 19
24 24 23 22 21 23 24 24 23 24 24 24 24 23 21 20 21 21 21 21 21 21 20 20 20 20 20 20 20 20 20 20 19 19 19 19 20 19 19 19 19 19 19 19 19 19 19 19 19
24 24 23 21 22 23 25 24 24 25 25 25 23 22 21 20 20 21 22 21 21 21 21 21 21 21 21 20 20 20 20 20 20 19 19 20 19 19 19 19 19 19 19 19 19 19 19 19 19
24 24 23 21 24 24 24 25 24 25 25 24 23 21 21 21 21 22 22 21 21 21 21 21 21 21 21 21 20 20 20 20 20 20 20 20 20 19 19 19 19 19 19 19 19 19 19 19 19
24 24 21 21 23 24 25 25 25 25 25 24 22 21 20 21 22 22 21 21 21 21 21 21 21 21 21 21 21 20 20 20 20 20 20 20 20 20 19 19 19 19 19 19 19 19 18 18 18
24 21 21 22 23 25 26 26 26 25 24 23 22 20 20 21 21 22 21 21 21 21 21 21 21 21 21 21 21 20 20 20 20 19 19 20 20 19 19 19 19 19 19 19 19 19 18 18 18
23 20 22 23 23 25 26 26 26 24 23 23 22 20 19 21 21 21 21 21 21 21 21 20 20 20 21 21 20 20 20 20 20 19 19 19 19 19 19 19 18 18 18 18 18 18 18 18 18
24 19 22 22 24 25 26 27 26 25 24 24 23 21 20 21 21 21 21 21 20 20 20 20 20 20 20 20 20 20 20 19 19 19 19 19 19 19 19 19 18 18 18 18 18 18 18 18 18
23 19 21 23 24 25 25 26 27 26 24 23 23 23 24 22 21 21 20 20 20 20 20 20 20 20 20 20 20 19 19 19 19 19 19 19 19 19 19 19 18 18 18 18 18 18 18 18 18
22 19 21 23 24 25 25 25 26 25 24 23 23 23 23 21 21 21 21 20 20 20 20 20 20 20 20 20 19 19 19 19 19 19 19 19 19 18 18 18 18 18 18 18 18 18 18 18 18
22 20 22 23 25 25 25 26 27 25 23 24 24 24 22 21 21 21 21 21 21 21 20 20 20 20 20 20 19 19 19 19 19 19 19 19 18 18 18 18 18 18 18 18 18 17 18 18 18
22 22 23 24 26 25 25 26 26 25 26 27 27 26 24 23 22 22 22 21 21 21 21 21 20 20 20 20 20 19 19 19 19 19 19 18 18 18 18 18 18 17 18 18 18 18 18 18 18
22 22 24 25 26 25 25 25 25 26 27 27 26 25 24 24 23 23 22 22 21 21 21 21 20 20 20 20 19 19 19 19 19 19 18 18 18 18 18 18 18 18 18 18 18 18 18 18 18
23 23 23 24 25 25 25 25 24 26 26 26 25 24 24 24 24 23 22 21 21 21 21 21 20 20 20 20 19 19 19 19 18 18 18 18 18 18 18 18 18 18 18 18 18 18 18 18 18
23 22 22 23 24 25 25 25 24 26 25 24 24 24 24 24 24 24 24 23 22 22 21 21 21 20 20 20 20 19 19 18 18 18 18 18 18 18 18 18 18 18 17 17 17 18 18 18 18
22 21 22 22 23 25 25 24 24 25 23 22 22 22 23 24 24 24 24 24 23 22 22 21 21 20 20 20 19 19 18 18 18 18 18 18 18 18 18 18 18 18 18 18 18 18 17 18 18
19 20 22 22 23 24 24 23 23 23 22 21 21 22 22 23 23 24 24 24 23 23 22 21 21 21 20 19 19 19 18 18 18 18 17 17 17 18 18 18 18 18 18 18 18 18 17 18 18
21 21 21 21 22 23 23 22 21 22 21 21 21 21 21 22 23 23 22 22 22 22 22 21 21 20 20 19 19 18 18 18 17 17 17 17 17 18 18 18 18 18 18 18 18 17 17 17 17
21 21 20 21 22 22 22 20 19 20 21 20 20 20 20 21 21 21 21 21 21 21 21 21 21 20 20 19 18 18 18 18 17 17 17 17 18 18 18 18 18 18 18 17 17 17 16 16 17
21 21 21 21 22 22 21 20 19 19 19 19 19 19 20 20 21 21 21 21 21 21 21 21 20 20 19 19 19 18 18 17 17 17 17 18 18 18 18 18 18 18 17 17 17 16 16 16 16
21 21 21 21 21 21 21 20 18 18 18 18 18 18 19 19 20 20 20 20 21 20 20 20 20 20 19 19 18 18 18 18 17 17 18 18 18 18 18 18 18 17 17 17 17 16 16 16 15
21 22 22 22 20 19 20 19 19 15 16 17 16 16 16 17 18 18 19 19 19 20 20 20 20 19 19 18 18 18 18 18 18 17 17 17 17 17 17 17 17 17 17 16 16 16 15 15 15
22 21 21 21 20 19 18 18 17 16 16 16 16 16 16 16 16 17 17 18 18 19 19 20 19 19 18 17 17 17 17 17 17 17 16 17 17 17 17 17 17 17 16 16 15 15 15 14 14
21 19 17 15 16 17 18 17 16 15 16 16 16 16 16 16 16 17 17 17 17 18 18 19 18 18 18 17 16 16 16 16 16 16 16 16 16 16 17 16 16 16 15 15 15 15 14 14 14
18 17 16 16 15 16 17 16 15 16 16 15 15 16 16 17 17 17 17 17 17 16 17 17 17 17 17 17 16 16 15 15 15 15 15 16 16 16 16 16 15 15 15 15 15 14 14 14 14
19 17 16 16 15 15 16 15 15 16 15 15 15 15 16 16 17 17 17 16 16 16 16 16 16 16 16 16 15 15 14 15 15 15 15 16 16 16 15 15 15 14 14 14 14 14 14 14 14
18 16 15 14 14 14 14 14 15 15 14 14 14 15 15 16 17 17 16 16 15 15 15 15 15 15 15 15 15 14 14 14 14 14 15 15 15 15 15 14 14 14 14 14 14 14 14 14 13
16 14 12 13 15 14 14 14 14 15 14 14 13 15 16 17 17 16 16 15 15 14 14 14 14 14 14 14 14 14 13 14 14 14 14 14 14 14 14 14 14 13 13 13 13 14 14 13 13
16 14 12 11 12 13 13 13 13 14 14 13 14 16 17 17 17 16 16 15 14 14 14 14 14 14 14 14 14 13 13 13 13 14 14 14 14 14 13 13 13 13 13 13 13 13 13 13 13
16 14 12 14 13 11 11 12 14 13 12 13 14 16 16 16 16 15 15 14 14 14 14 14 14 13 13 13 13 13 13 13 13 13 14 14 13 13 13 13 13 13 12 12 12 12 12 12 12
Wind_Speed
3 2 2 2 2 3 3 1 2 3 2 2 5 2 5 5 3 3 3 12 13 14 17 20 21 20 19 17 16 16 15 14 14 14 13 13 13 12 11 10 10 9 8 7 6 5 6 7 8
1 3 2 3 4 3 4 1 2 1 4 5 6 4 4 2 3 6 7 9 14 14 17 19 21 20 18 17 16 15 15 14 13 13 12 12 12 12 11 10 9 8 8 7 6 5 5 5 6
2 1 3 4 3 2 3 1 1 3 6 3 4 4 3 3 6 7 7 12 12 11 15 19 21 20 19 17 16 15 14 13 12 11 11 10 9 9 9 8 7 6 6 5 5 4 4 5 5
1 3 5 4 2 4 3 1 2 6 4 4 5 5 3 3 7 7 13 15 14 10 14 18 21 20 19 18 17 15 14 13 11 10 9 9 8 7 7 6 5 5 4 4 4 4 4 4 4
3 4 5 4 5 5 3 3 5 3 3 4 5 4 2 3 9 13 15 14 13 10 12 16 21 20 19 19 17 16 14 13 11 10 9 8 8 7 6 6 5 5 5 4 4 4 4 5 6
4 5 4 4 7 6 2 4 5 3 3 4 5 5 2 5 12 14 14 12 11 11 10 14 21 20 19 18 18 16 15 13 11 10 9 9 8 8 7 7 6 6 5 5 5 5 6 7 7
4 5 3 3 6 6 5 1 6 5 4 5 6 5 2 5 9 13 11 10 9 8 7 9 15 18 18 18 17 15 14 12 11 10 10 9 8 7 8 8 8 8 8 7 7 8 8 8 9
5 5 2 2 3 4 6 4 3 6 4 5 6 7 6 8 10 10 9 8 8 7 7 6 9 12 13 15 16 15 14 12 11 10 10 9 9 8 8 9 9 9 10 10 10 11 11 11 11
4 5 3 4 3 5 6 7 3 5 6 4 5 6 7 15 15 12 8 7 9 10 7 6 6 9 10 11 13 14 14 13 11 10 10 10 8 7 8 9 10 12 12 12 13 13 14 14 14
5 4 6 4 3 4 6 4 4 5 5 3 3 5 14 17 16 15 13 14 14 13 13 8 7 7 9 10 9 9 10 11 11 9 8 8 7 8 8 10 13 14 15 15 15 16 16 15 13
4 6 5 5 5 4 5 6 2 7 6 9 9 13 21 17 15 15 15 14 14 13 13 11 9 8 8 7 8 8 8 9 10 9 8 6 6 7 8 9 11 13 14 13 13 13 12 12 12
2 5 5 6 5 4 5 5 3 8 10 8 13 20 24 22 20 19 17 15 11 11 14 11 11 9 8 8 7 8 7 7 7 9 9 7 5 6 7 8 10 10 10 10 10 9 11 11 12
4 6 6 7 10 6 6 6 5 7 5 7 14 18 22 21 19 15 14 13 12 13 13 11 11 11 9 6 5 6 7 7 9 9 10 11 7 6 7 7 9 10 11 9 8 8 8 8 10
4 6 8 9 10 5 4 3 3 7 4 11 17 19 19 19 18 14 13 13 13 13 13 12 12 11 9 8 7 5 8 9 9 10 12 13 12 9 7 7 7 9 11 10 9 8 6 6 7
3 5 8 6 4 3 0 4 5 5 8 11 15 16 16 14 14 16 16 15 15 14 13 13 13 12 11 10 9 7 9 10 9 11 13 14 14 12 9 7 7 8 11 10 7 7 6 6 7
3 4 4 8 4 4 1 7 8 6 11 12 12 13 14 13 14 14 15 15 14 13 13 13 13 13 12 11 9 7 9 10 10 12 13 14 15 14 9 7 8 10 9 6 6 6 5 6 7
6 4 4 8 5 4 0 7 8 7 13 14 14 14 14 12 13 13 13 15 14 13 13 14 13 14 14 12 10 8 8 8 9 10 9 11 12 12 9 6 7 8 5 5 6 6 5 6 7
3 3 5 7 7 6 5 6 8 7 14 14 14 12 11 13 14 6 6 8 9 10 10 11 11 11 11 10 8 6 6 5 5 6 7 8 8 7 6 4 5 4 4 6 5 7 6 6 7
2 3 7 7 6 4 5 7 10 3 4 3 3 3 5 6 5 5 5 4 4 6 7 8 10 9 9 7 7 6 6 5 4 4 6 6 5 3 2 1 2 3 4 6 7 6 8 6 5
3 3 5 6 6 4 4 6 8 8 4 5 5 5 5 5 5 4 4 3 3 4 5 6 8 8 8 7 6 4 4 3 2 3 3 4 4 4 2 2 2 3 4 7 7 7 6 5 5
1 2 3 5 6 7 5 6 7 7 7 10 10 6 5 4 4 4 4 2 1 2 3 4 5 6 7 7 4 3 3 2 2 2 1 1 3 3 2 2 2 4 4 6 8 8 9 8 6
2 1 2 2 3 5 4 4 5 6 7 8 10 9 7 6 5 3 3 3 2 0 2 3 3 3 3 5 6 7 5 4 3 2 1 0 1 1 1 2 2 3 4 6 7 8 8 10 8
3 2 2 1 2 1 4 1 6 5 6 7 7 8 7 6 5 4 4 3 3 2 2 5 6 4 3 2 3 4 3 2 3 2 2 1 1 1 1 2 2 3 3 4 5 6 6 6 7
1 5 6 5 4 1 3 1 6 4 4 5 7 7 6 6 5 4 3 2 2 3 1 2 6 6 7 6 4 5 6 6 5 4 3 2 1 0 2 2 2 3 3 4 5 5 6 5 6
7 6 5 6 4 6 3 3 8 6 5 5 7 8 7 6 5 5 4 3 3 3 2 2 4 5 6 7 7 6 6 6 6 5 4 2 1 0 2 2 3 3 4 5 5 5 6 6 5
3 7 5 3 5 6 5 6 7 4 4 5 7 8 8 8 6 6 6 5 5 5 5 4 5 5 5 6 5 6 6 5 4 4 3 2 1 0 2 3 3 4 4 5 5 5 5 5 4
5 4 5 6 2 3 7 7 8 4 7 9 9 9 10 9 8 8 7 7 7 7 7 6 6 5 5 6 7 7 6 6 5 4 3 2 1 1 3 3 4 4 4 5 5 4 5 5 3
2 7 6 5 3 5 7 6 5 7 10 11 11 12 12 10 9 8 7 7 7 7 6 6 5 6 5 6 7 6 6 5 5 4 3 3 2 2 3 4 4 4 4 4 4 3 4 4 3
3 4 5 4 4 5 5 8 8 10 11 10 11 11 11 11 10 8 7 7 6 6 5 4 3 3 4 5 6 7 6 5 5 4 4 3 3 4 4 4 4 4 4 4 4 4 4 4 4
5 7 8 4 5 5 4 9 8 9 9 9 11 10 10 9 8 7 7 6 5 3 2 2 1 2 2 3 4 6 6 5 5 5 4 4 5 6 6 5 5 5 5 5 5 5 5 5 6
Wind_Direction
254 201 153 126 68 37 341 299 242 311 29 10 124 109 134 140 176 189 132 146 143 149 158 160 158 156 154 151 148 145 142 139 135 132 131 132 135 139 139 137 137 138 141 141 140 141 141 140 142
246 163 129 83 74 24 314 260 234 216 154 114 83 72 71 84 71 117 140 151 147 149 156 159 160 160 159 157 155 152 148 146 142 140 138 138 140 144 147 148 148 150 151 151 151 154 159 164 165
233 154 97 75 103 198 273 252 211 125 159 124 91 80 109 165 144 149 159 145 139 145 155 163 162 163 163 163 162 159 156 154 152 147 145 146 147 148 152 156 159 162 168 175 180 180 178 182 191
122 51 55 60 299 246 250 286 143 119 135 88 104 93 83 149 154 150 146 146 143 146 155 168 165 166 167 168 169 168 166 165 163 158 156 158 160 161 163 168 175 185 196 207 211 213 212 209 213
59 72 45 7 299 275 245 154 146 135 116 104 119 114 65 74 121 137 146 151 151 149 157 173 169 171 172 173 175 176 175 175 174 172 172 173 176 180 184 187 197 209 215 223 234 237 239 241 238
49 60 61 332 313 317 317 151 148 133 113 122 130 122 119 131 138 150 153 154 155 156 161 176 174 176 178 179 180 181 183 183 184 185 186 188 195 203 204 207 214 221 225 227 234 242 248 251 250
98 90 133 287 310 333 354 120 147 138 149 168 145 118 127 164 163 152 150 144 146 153 159 174 178 181 184 185 187 188 189 189 189 191 194 199 208 220 228 228 230 232 233 236 242 249 255 262 261
114 100 107 285 295 321 343 356 142 144 169 140 137 154 183 186 158 143 134 137 147 159 167 173 173 176 183 190 194 195 196 198 199 200 204 207 214 226 236 238 242 247 246 245 249 255 258 259 261
78 81 178 226 228 297 334 353 349 135 125 153 180 180 180 150 148 144 140 150 167 179 180 176 170 169 173 183 197 198 200 203 206 209 212 213 217 229 241 247 250 253 255 257 259 262 263 261 260
86 142 218 229 227 279 307 308 276 135 143 167 122 117 137 150 158 164 171 177 184 190 191 184 176 166 166 178 184 187 192 196 202 208 217 214 213 225 242 254 260 262 262 264 265 264 265 266 262
136 190 235 253 248 262 289 297 273 154 202 207 186 159 152 165 170 178 183 185 189 190 193 190 182 170 170 172 167 175 185 191 200 207 211 213 222 235 247 257 266 271 272 270 267 269 268 262 259
215 239 232 258 257 271 259 274 270 196 225 206 173 162 163 175 182 186 188 189 185 185 195 189 184 178 179 176 178 183 187 192 200 207 210 212 226 239 245 251 260 266 264 260 259 257 260 262 263
234 266 262 261 284 264 252 243 240 246 254 139 146 162 174 184 188 191 192 190 186 191 194 188 185 186 184 181 184 189 196 201 206 210 216 218 225 238 244 250 257 262 262 256 255 254 254 259 267
250 263 284 284 282 272 258 279 193 255 152 144 159 176 184 190 190 190 192 193 194 196 196 188 189 191 185 188 191 197 205 209 211 220 226 226 229 235 235 244 250 258 258 254 250 250 252 259 263
273 294 310 295 283 277 222 318 242 234 150 164 178 185 190 195 194 200 198 197 198 198 195 191 193 191 190 193 196 200 208 210 216 227 232 232 231 234 234 240 249 252 254 254 251 252 252 259 262
24 31 339 303 298 302 176 268 267 180 164 183 192 194 199 204 205 206 203 202 200 195 194 196 197 192 195 197 197 201 209 212 220 227 231 232 231 231 229 235 245 247 244 241 243 247 252 256 258
18 6 321 310 309 345 169 255 277 196 181 191 198 202 208 214 221 216 210 206 203 199 197 197 197 193 196 198 199 201 204 207 212 214 219 226 230 228 221 229 243 250 244 243 246 248 242 258 263
288 319 317 303 306 337 333 296 305 223 199 200 201 206 213 223 232 238 239 222 212 207 205 204 202 199 194 193 195 197 197 200 200 201 208 213 214 215 208 220 244 253 258 262 259 262 258 256 265
257 298 300 286 303 335 340 343 341 325 224 249 264 274 281 277 309 342 326 288 239 218 212 207 202 202 191 186 187 187 192 192 197 193 185 177 165 147 144 218 295 291 276 278 280 279 275 264 253
237 305 311 306 335 11 360 8 2 29 31 35 27 9 353 338 340 344 335 314 263 234 220 215 210 204 199 197 188 178 167 165 166 151 142 134 109 80 59 9 321 306 294 289 280 269 268 259 228
164 171 291 299 328 4 13 358 8 1 24 39 33 18 354 335 325 337 338 330 290 233 217 205 206 207 206 195 172 145 126 116 134 148 138 73 72 65 42 353 323 308 294 290 286 276 269 272 258
318 256 290 312 3 326 8 305 335 341 358 25 20 15 4 353 343 343 351 349 353 71 130 139 147 182 208 195 183 176 179 184 188 172 175 74 38 27 12 350 337 320 308 298 295 287 276 276 277
275 358 46 65 157 326 355 247 290 339 346 348 360 2 354 351 351 350 356 353 348 360 115 134 137 150 146 190 193 173 159 159 142 144 166 192 267 298 5 14 7 354 339 329 322 313 298 283 280
23 56 40 42 80 243 263 240 273 252 263 305 327 337 339 336 339 340 345 1 349 342 342 150 158 165 160 161 175 178 170 161 159 171 183 202 227 293 21 20 8 352 346 341 333 320 311 299 286
61 65 11 350 1 253 280 235 246 224 214 247 279 292 299 302 306 309 317 323 314 304 285 243 193 180 175 167 167 174 166 163 170 172 179 176 155 41 5 6 349 342 338 337 336 326 321 312 304
107 131 157 242 250 284 308 250 257 240 233 243 254 263 271 269 267 269 271 277 282 278 271 250 222 205 187 175 162 149 148 153 158 164 165 158 143 355 350 350 341 334 337 340 339 332 332 325 318
135 153 160 144 213 277 280 294 300 262 269 261 259 259 258 259 263 266 268 267 268 272 270 260 236 218 198 176 155 149 159 161 155 157 148 124 78 32 18 10 2 354 348 344 341 339 343 346 1
72 139 103 130 197 269 288 280 253 263 257 259 256 256 260 264 266 269 268 263 261 261 266 266 248 221 196 176 163 161 171 165 153 142 113 81 60 52 39 29 17 4 351 345 345 339 344 359 11
101 96 106 121 160 180 266 272 229 232 243 252 260 261 264 269 273 277 279 274 264 259 254 247 238 222 193 178 167 161 161 154 141 122 95 72 54 48 46 32 20 5 350 345 349 347 352 18 33
193 180 155 171 228 193 216 270 262 246 263 264 270 275 274 272 275 279 283 284 274 262 261 264 234 222 206 169 155 153 149 141 127 107 87 69 65 60 56 48 39 23 9 3 3 0 16 38 44
Height
1506 1505 1505 1506 1508 1513 1514 1509 1506 1503 1501 1501 1503 1505 1505 1508 1512 1516 1511 1513 1518 1523 1526 1529 1533 1536 1538 1540 1542 1545 1546 1547 1549 1550 1551 1552 1553 1554 1555 1557 1557 1559 1560 1560 1561 1561 1562 1563 1563
1506 1505 1507 1507 1513 1522 1515 1505 1504 1501 1501 1502 1503 1505 1506 1507 1507 1507 1509 1514 1519 1523 1526 1529 1533 1537 1539 1541 1543 1545 1547 1549 1550 1552 1553 1554 1555 1555 1556 1558 1559 1560 1560 1561 1562 1562 1563 1563 1564
1506 1506 1507 1508 1515 1520 1512 1503 1501 1500 1501 1502 1505 1506 1507 1507 1506 1508 1510 1514 1519 1523 1526 1530 1533 1537 1540 1542 1544 1547 1549 1550 1552 1553 1554 1555 1556 1557 1558 1559 1560 1561 1562 1562 1563 1563 1563 1563 1564
1507 1507 1507 1513 1514 1509 1505 1502 1501 1502 1504 1504 1505 1507 1508 1508 1508 1510 1512 1515 1519 1523 1526 1530 1534 1537 1540 1542 1545 1547 1549 1551 1553 1554 1555 1556 1557 1558 1559 1560 1561 1562 1562 1563 1563 1563 1563 1563 1563
1507 1506 1512 1520 1514 1506 1500 1500 1501 1502 1503 1505 1506 1508 1508 1509 1510 1512 1514 1516 1519 1523 1527 1530 1534 1537 1540 1543 1545 1547 1550 1552 1553 1555 1555 1556 1557 1559 1559 1560 1561 1561 1562 1563 1563 1563 1563 1563 1563
1508 1508 1522 1525 1514 1504 1500 1499 1500 1502 1503 1505 1506 1507 1508 1510 1512 1514 1516 1518 1521 1524 1527 1531 1534 1537 1540 1543 1545 1547 1549 1551 1553 1554 1556 1557 1558 1559 1560 1560 1561 1561 1562 1562 1563 1563 1563 1563 1562
1509 1514 1520 1519 1516 1508 1502 1499 1500 1501 1503 1505 1506 1507 1508 1509 1513 1515 1517 1519 1522 1525 1528 1531 1533 1537 1540 1543 1545 1547 1549 1550 1552 1554 1555 1557 1557 1558 1559 1560 1561 1561 1561 1562 1562 1562 1562 1561 1561
1508 1513 1519 1520 1516 1510 1503 1501 1500 1501 1503 1505 1506 1505 1506 1507 1511 1514 1517 1519 1522 1525 1528 1530 1533 1536 1539 1542 1544 1546 1548 1550 1552 1553 1554 1556 1557 1557 1558 1559 1560 1560 1560 1560 1560 1560 1559 1559 1559
1509 1519 1524 1518 1513 1509 1504 1502 1501 1501 1503 1504 1505 1504 1504 1506 1510 1513 1515 1518 1521 1523 1526 1529 1532 1535 1538 1541 1543 1545 1547 1549 1551 1552 1554 1555 1556 1557 1557 1558 1558 1558 1558 1558 1558 1558 1557 1557 1556
1510 1522 1518 1511 1508 1507 1505 1504 1502 1502 1502 1503 1503 1503 1504 1505 1508 1510 1512 1514 1517 1521 1524 1527 1531 1534 1536 1539 1541 1543 1546 1548 1550 1551 1552 1553 1554 1555 1556 1556 1557 1557 1557 1557 1557 1556 1556 1555 1554
1510 1515 1511 1508 1507 1506 1504 1502 1501 1500 1501 1499 1498 1500 1502 1504 1507 1509 1511 1513 1516 1520 1523 1526 1529 1532 1534 1537 1539 1542 1544 1546 1548 1549 1550 1551 1552 1553 1553 1554 1555 1555 1555 1555 1555 1554 1554 1553 1552
1510 1509 1508 1506 1504 1504 1502 1500 1499 1498 1496 1495 1496 1497 1498 1500 1503 1505 1508 1512 1515 1518 1521 1524 1527 1530 1533 1535 1537 1540 1542 1544 1546 1547 1548 1549 1550 1551 1551 1552 1553 1553 1553 1553 1553 1552 1552 1551 1550
1510 1507 1505 1503 1501 1499 1498 1497 1497 1494 1494 1494 1495 1497 1497 1498 1500 1504 1508 1512 1514 1517 1519 1522 1525 1528 1531 1533 1536 1538 1540 1542 1544 1545 1546 1547 1548 1549 1549 1549 1550 1550 1550 1550 1550 1550 1549 1548 1547
1508 1506 1503 1501 1497 1496 1496 1495 1495 1492 1492 1493 1493 1494 1496 1498 1500 1503 1506 1509 1512 1515 1518 1520 1523 1526 1529 1532 1534 1536 1538 1540 1541 1542 1543 1544 1545 1546 1547 1547 1547 1547 1547 1547 1547 1546 1546 1545 1544
1506 1506 1503 1498 1496 1495 1495 1497 1494 1490 1491 1492 1493 1494 1496 1498 1500 1501 1504 1507 1510 1514 1517 1519 1521 1524 1526 1529 1531 1534 1536 1537 1538 1540 1541 1542 1542 1543 1544 1544 1544 1544 1544 1544 1543 1543 1542 1541 1540
1506 1510 1512 1502 1497 1495 1499 1504 1491 1489 1490 1492 1493 1494 1496 1497 1498 1501 1504 1506 1509 1512 1514 1517 1519 1521 1523 1525 1528 1531 1533 1534 1535 1537 1538 1538 1539 1540 1540 1541 1541 1541 1541 1540 1540 1539 1538 1537 1536
1515 1520 1516 1507 1496 1496 1498 1501 1490 1488 1488 1489 1491 1492 1494 1496 1498 1499 1502 1504 1508 1510 1513 1515 1516 1518 1520 1522 1525 1527 1529 1531 1532 1533 1534 1535 1535 1536 1536 1537 1537 1537 1537 1536 1536 1535 1534 1533 1532
1520 1517 1516 1513 1500 1497 1498 1498 1491 1487 1487 1487 1489 1491 1494 1495 1496 1500 1504 1506 1509 1511 1513 1515 1516 1517 1519 1520 1522 1523 1525 1527 1528 1529 1530 1530 1531 1532 1532 1533 1533 1533 1533 1532 1531 1530 1529 1527 1527
1513 1515 1518 1510 1499 1499 1501 1500 1495 1489 1492 1493 1495 1497 1498 1499 1502 1505 1507 1509 1510 1511 1513 1514 1515 1516 1517 1517 1517 1519 1520 1522 1524 1524 1525 1526 1527 1528 1528 1529 1529 1529 1528 1526 1526 1524 1522 1521 1521
1512 1516 1515 1508 1500 1500 1502 1503 1498 1496 1497 1499 1500 1501 1502 1502 1503 1504 1505 1506 1508 1509 1510 1512 1513 1514 1515 1515 1515 1516 1517 1518 1519 1520 1521 1522 1523 1524 1524 1524 1524 1524 1522 1520 1519 1518 1516 1514 1515
1511 1514 1514 1512 1505 1503 1503 1508 1506 1502 1501 1500 1501 1501 1501 1501 1500 1500 1501 1502 1504 1505 1507 1508 1510 1511 1512 1513 1513 1513 1513 1514 1514 1516 1516 1518 1518 1519 1519 1519 1519 1518 1516 1514 1513 1512 1509 1507 1507
1514 1507 1507 1508 1514 1520 1514 1525 1512 1511 1505 1503 1503 1502 1501 1500 1499 1498 1498 1498 1499 1500 1501 1503 1504 1506 1507 1508 1508 1507 1507 1508 1509 1511 1512 1513 1513 1514 1514 1514 1513 1513 1511 1509 1507 1506 1504 1502 1500
1508 1506 1508 1509 1514 1521 1520 1525 1522 1512 1510 1506 1504 1503 1501 1500 1498 1497 1496 1496 1496 1496 1497 1497 1498 1499 1500 1501 1501 1501 1502 1503 1505 1507 1508 1508 1509 1509 1510 1510 1509 1508 1507 1505 1503 1501 1500 1498 1496
1505 1510 1515 1521 1525 1533 1522 1527 1526 1516 1510 1507 1505 1503 1502 1500 1498 1497 1496 1495 1494 1494 1494 1494 1494 1494 1493 1493 1493 1495 1497 1499 1501 1503 1504 1505 1505 1505 1505 1506 1505 1505 1503 1502 1500 1498 1496 1494 1492
1511 1524 1539 1538 1543 1538 1523 1526 1523 1508 1507 1507 1506 1504 1502 1500 1499 1497 1496 1494 1493 1492 1491 1491 1490 1490 1489 1489 1490 1492 1493 1496 1498 1500 1500 1501 1501 1501 1501 1502 1502 1501 1500 1499 1498 1496 1493 1491 1490
1514 1523 1542 1548 1549 1539 1526 1526 1516 1505 1504 1504 1503 1502 1500 1499 1498 1496 1495 1493 1492 1491 1490 1489 1487 1487 1486 1487 1487 1488 1491 1494 1496 1497 1497 1497 1497 1497 1498 1498 1498 1498 1498 1497 1496 1494 1491 1489 1487
1517 1523 1525 1539 1541 1544 1535 1525 1511 1502 1502 1501 1499 1498 1497 1496 1496 1494 1493 1491 1490 1488 1487 1486 1485 1485 1484 1485 1485 1486 1489 1491 1492 1494 1494 1494 1494 1495 1495 1496 1496 1496 1495 1494 1494 1492 1490 1488 1486
1515 1522 1534 1540 1545 1549 1539 1531 1521 1505 1501 1497 1495 1494 1493 1493 1493 1492 1490 1489 1487 1486 1484 1483 1483 1482 1482 1482 1483 1485 1487 1488 1490 1491 1492 1492 1492 1493 1494 1494 1494 1493 1493 1492 1491 1490 1488 1487 1486
1520 1526 1532 1540 1541 1548 1547 1532 1506 1500 1495 1494 1491 1490 1490 1490 1489 1488 1487 1485 1484 1483 1482 1480 1480 1479 1479 1479 1481 1483 1484 1486 1488 1489 1490 1491 1491 1492 1493 1493 1493 1493 1492 1491 1490 1488 1488 1487 1486
1513 1519 1529 1535 1536 1543 1545 1530 1495 1495 1492 1491 1490 1488 1487 1486 1485 1484 1482 1481 1481 1480 1479 1478 1477 1477 1477 1477 1479 1481 1483 1484 1487 1488 1489 1490 1490 1491 1492 1492 1492 1492 1491 1490 1489 1488 1487 1486 1486